Weather History for Mount Sterling, KY

Change the Weather History Date:

Friday, December 7, 2012

  Actual Average Record
Temperature  
Mean Temperature 54 °F -  
Max Temperature 57 °F 48 °F 57 °F (2012)
Min Temperature 50 °F 30 °F 26 °F (2013)
Degree Days  
Heating Degree Days 12    
Growing Degree Days 4 (Base 50)    
Moisture  
Dew Point 50 °F    
Average Humidity 93    
Maximum Humidity 100    
Minimum Humidity 82    
Precipitation  
Precipitation 0.00 in - - ()
Sea Level Pressure  
Sea Level Pressure 29.97 in    
Wind  
Wind Speed 6 mph (SW)    
Max Wind Speed 14 mph    
Max Gust Speed 18 mph    
Visibility 9 miles    
Events Rain    
Averages and records for this station are not official NWS values.
T = Trace of Precipitation, MM = Missing Value Source: NWS Daily Summary

Daily Weather History Graph

Daily Weather History Graph

Search for Another Location

Airport:

Trip Planner

Search our weather history database for the weather conditions in past years. The results will help you decide how hot, cold, wet, or windy it might be!

Date:

Astronomy

Dec. 07, 2012 Rise Set
Actual Time 7:39 AM EST 5:16 PM EST
Civil Twilight 7:09 AM EST 5:45 PM EST
Nautical Twilight 6:36 AM EST 6:18 PM EST
Astronomical Twilight 6:05 AM EST 6:50 PM EST
Moon 1:02 AM EST (12/7) 1:07 PM EST (12/7)
Length of Visible Light 10h 35m
Length of Day
9h 36m
Last Quarter, 39% of the Moon is Illuminated
Dec 7
Last Quarter
Dec 13
New
Dec 20
First Quarter
Dec 28
Full
Jan 4
Last Quarter

Hourly Weather History & Observations

Time (EST) Temp. Dew Point Humidity Pressure Visibility Wind Dir Wind Speed Gust Speed Precip Events Conditions
12:15 AM 50.0 °F 46.4 °F 87% 30.02 in 10.0 mi SSW 6.9 mph - N/A Rain Light Rain
12:35 AM 50.0 °F 46.4 °F 87% 30.02 in 10.0 mi SSW 8.1 mph - N/A   Overcast
12:55 AM 50.0 °F 46.4 °F 87% 30.02 in 10.0 mi SW 6.9 mph - N/A   Overcast
1:15 AM 51.8 °F 46.4 °F 82% 30.02 in 10.0 mi SW 5.8 mph - N/A Rain Light Rain
1:35 AM 50.0 °F 46.4 °F 87% 30.02 in 10.0 mi WSW 6.9 mph - N/A   Drizzle
1:55 AM 50.0 °F 46.4 °F 87% 30.02 in 10.0 mi WSW 5.8 mph - N/A Rain Rain
2:15 AM 50.0 °F 48.2 °F 94% 30.03 in 7.0 mi SW 9.2 mph - N/A Rain Rain
2:35 AM 50.0 °F 48.2 °F 94% 30.02 in 10.0 mi SW 11.5 mph - N/A Rain Light Rain
2:55 AM 50.0 °F 48.2 °F 94% 30.01 in 7.0 mi SSW 13.8 mph 18.4 mph N/A Rain Light Rain
3:15 AM 50.0 °F 48.2 °F 94% 30.01 in 10.0 mi SW 10.4 mph - N/A Rain Light Rain
3:35 AM 50.0 °F 48.2 °F 94% 30.01 in 10.0 mi SW 8.1 mph - N/A Rain Light Rain
3:55 AM 50.0 °F 48.2 °F 94% 30.01 in 10.0 mi WSW 4.6 mph - N/A Rain Rain
4:15 AM 50.0 °F 48.2 °F 94% 30.00 in 10.0 mi SW 6.9 mph - N/A Rain Light Rain
4:35 AM 50.0 °F 48.2 °F 94% 30.00 in 10.0 mi SW 6.9 mph - N/A   Overcast
4:55 AM 50.0 °F 48.2 °F 94% 30.00 in 10.0 mi SW 4.6 mph - N/A   Overcast
5:15 AM 50.0 °F 48.2 °F 94% 30.00 in 10.0 mi WSW 4.6 mph - N/A   Overcast
5:35 AM 50.0 °F 48.2 °F 94% 30.00 in 10.0 mi SW 5.8 mph - N/A   Mostly Cloudy
5:55 AM 50.0 °F 48.2 °F 94% 30.00 in 10.0 mi WSW 4.6 mph - N/A   Overcast
6:15 AM 50.0 °F 46.4 °F 87% 30.00 in 10.0 mi Calm Calm - N/A   Overcast
6:35 AM 50.0 °F 46.4 °F 87% 30.00 in 10.0 mi SW 4.6 mph - N/A   Mostly Cloudy
6:55 AM 50.0 °F 46.4 °F 87% 30.00 in 10.0 mi SW 3.5 mph - N/A   Overcast
7:15 AM 50.0 °F 46.4 °F 87% 30.01 in 10.0 mi North 4.6 mph - N/A   Overcast
7:35 AM 50.0 °F 48.2 °F 94% 30.02 in 10.0 mi Calm Calm - N/A Rain Rain
7:55 AM 50.0 °F 48.2 °F 94% 30.02 in 10.0 mi Calm Calm - N/A Rain Light Rain
8:15 AM 50.0 °F 48.2 °F 94% 30.01 in 7.0 mi Calm Calm - N/A Rain Light Rain
8:35 AM 50.0 °F 48.2 °F 94% 30.01 in 5.0 mi Calm Calm - N/A Rain Light Rain
8:55 AM 50.0 °F 50.0 °F 100% 30.01 in 7.0 mi Calm Calm - N/A   Overcast
9:15 AM 50.0 °F 48.2 °F 94% 30.01 in 7.0 mi Calm Calm - N/A Rain Rain
9:35 AM 50.0 °F 50.0 °F 100% 30.01 in 5.0 mi Calm Calm - N/A Rain Light Rain
9:55 AM 50.0 °F 50.0 °F 100% 30.02 in 4.0 mi Calm Calm - N/A Rain Light Rain
10:15 AM 50.0 °F 50.0 °F 100% 30.02 in 4.0 mi Calm Calm - N/A Rain Rain
10:35 AM 50.0 °F 50.0 °F 100% 30.01 in 3.0 mi ESE 3.5 mph - N/A Rain Rain
10:55 AM 50.0 °F 50.0 °F 100% 30.01 in 4.0 mi Calm Calm - N/A Rain Rain
11:15 AM 50.0 °F 50.0 °F 100% 30.00 in 5.0 mi Calm Calm - N/A Rain Light Rain
11:35 AM 50.0 °F 50.0 °F 100% 30.00 in 5.0 mi Calm Calm - N/A   Overcast
11:55 AM 50.0 °F 50.0 °F 100% 29.99 in 7.0 mi Calm Calm - N/A   Overcast
12:15 PM 51.8 °F 50.0 °F 94% 29.98 in 7.0 mi Calm Calm - N/A   Overcast
12:35 PM 51.8 °F 51.8 °F 100% 29.96 in 7.0 mi SSE 4.6 mph - N/A   Overcast
12:55 PM 51.8 °F 51.8 °F 100% 29.96 in 10.0 mi SSW 3.5 mph - N/A   Overcast
1:15 PM 53.6 °F 51.8 °F 94% 29.95 in 7.0 mi Calm Calm - N/A Rain Light Rain
1:35 PM 53.6 °F 51.8 °F 94% 29.93 in 5.0 mi SSW 3.5 mph - N/A Rain Light Rain
1:55 PM 53.6 °F 51.8 °F 94% 29.92 in 10.0 mi SSW 4.6 mph - N/A   Overcast
2:15 PM 55.4 °F 53.6 °F 94% 29.91 in 10.0 mi SSW 5.8 mph - N/A   Overcast
2:35 PM 55.4 °F 53.6 °F 94% 29.91 in 10.0 mi SSW 5.8 mph - N/A   Overcast
2:55 PM 55.4 °F 53.6 °F 94% 29.91 in 10.0 mi SW 6.9 mph - N/A   Overcast
3:15 PM 55.4 °F 53.6 °F 94% 29.91 in 10.0 mi SSW 6.9 mph - N/A   Overcast
3:35 PM 57.2 °F 53.6 °F 88% 29.91 in 10.0 mi SW 6.9 mph - N/A   Overcast
3:55 PM 57.2 °F 53.6 °F 88% 29.91 in 10.0 mi SW 6.9 mph - N/A   Overcast
4:15 PM 57.2 °F 51.8 °F 82% 29.91 in 10.0 mi SW 8.1 mph - N/A   Overcast
4:35 PM 57.2 °F 51.8 °F 82% 29.91 in 10.0 mi SW 5.8 mph - N/A   Overcast
4:55 PM 55.4 °F 53.6 °F 94% 29.91 in 10.0 mi WSW 6.9 mph - N/A   Overcast
5:15 PM 55.4 °F 53.6 °F 94% 29.91 in 10.0 mi SW 5.8 mph - N/A   Overcast
5:35 PM 55.4 °F 53.6 °F 94% 29.91 in 10.0 mi WSW 5.8 mph - N/A   Overcast
5:55 PM 55.4 °F 53.6 °F 94% 29.90 in 10.0 mi SW 5.8 mph - N/A   Overcast
6:15 PM 55.4 °F 53.6 °F 94% 29.91 in 10.0 mi WSW 4.6 mph - N/A   Overcast
6:35 PM 55.4 °F 53.6 °F 94% 29.91 in 10.0 mi WSW 6.9 mph - N/A Rain Light Rain
6:55 PM 55.4 °F 53.6 °F 94% 29.91 in 10.0 mi SW 4.6 mph - N/A   Overcast
7:15 PM 55.4 °F 53.6 °F 94% 29.91 in 10.0 mi SW 4.6 mph - N/A   Overcast
7:35 PM 53.6 °F 53.6 °F 100% 29.90 in 10.0 mi SW 5.8 mph - N/A Rain Light Rain
8:15 PM 55.4 °F 53.6 °F 94% 29.91 in 10.0 mi WSW 5.8 mph - N/A Rain Light Rain
8:35 PM 53.6 °F 53.6 °F 100% 29.91 in 7.0 mi WSW 5.8 mph - N/A Rain Rain
8:55 PM 53.6 °F 53.6 °F 100% 29.91 in 10.0 mi SW 5.8 mph - N/A   Overcast
9:35 PM 55.4 °F 51.8 °F 88% 29.91 in 10.0 mi WSW 8.1 mph - N/A   Overcast
9:55 PM 55.4 °F 51.8 °F 88% 29.91 in 10.0 mi WSW 8.1 mph - N/A   Overcast
10:35 PM 53.6 °F 51.8 °F 94% 29.91 in 10.0 mi WSW 9.2 mph - N/A   Overcast
10:55 PM 53.6 °F 51.8 °F 94% 29.91 in 10.0 mi WSW 6.9 mph - N/A   Overcast
11:15 PM 53.6 °F 51.8 °F 94% 29.91 in 10.0 mi WSW 8.1 mph - N/A   Overcast
11:35 PM 53.6 °F 50.0 °F 88% 29.91 in 10.0 mi WSW 8.1 mph - N/A   Mostly Cloudy
11:55 PM 53.6 °F 51.8 °F 94% 29.91 in 10.0 mi WSW 8.1 mph - N/A   Overcast